Wetterdaten: Mittwoch, 09.03.2016
Datum Zeit Auen-Temp. Temp gefhlt Luftfeuchte Luftdruck Regen Wind Richtung Richtung Sonnenschein Taupunkt Windben
09.03.2016 00:00 -1,8 C -2,0 C 78 % 1015,1 hPa 0,0 mm 0,0 km/h (0 Bft) NO 45 0 min -5,1 C 0,0 km/h (0 Bft)
09.03.2016 00:05 -1,8 C -2,0 C 78 % 1015,1 hPa 0,0 mm 0,0 km/h (0 Bft) NO 45 0 min -5,1 C 0,0 km/h (0 Bft)
09.03.2016 00:10 -1,8 C -2,0 C 78 % 1014,9 hPa 0,0 mm 0,0 km/h (0 Bft) O-NO 67 0 min -5,1 C 0,0 km/h (0 Bft)
09.03.2016 00:15 -1,9 C -2,1 C 78 % 1014,9 hPa 0,0 mm 0,0 km/h (0 Bft) O-NO 67 0 min -5,2 C 0,0 km/h (0 Bft)
09.03.2016 00:20 -1,9 C -2,1 C 78 % 1014,9 hPa 0,0 mm 0,0 km/h (0 Bft) O-NO 67 0 min -5,2 C 0,0 km/h (0 Bft)
09.03.2016 00:25 -2,0 C -2,2 C 78 % 1014,9 hPa 0,0 mm 0,0 km/h (0 Bft) O-NO 67 0 min -5,3 C 0,0 km/h (0 Bft)
09.03.2016 00:30 -2,0 C -2,2 C 78 % 1014,4 hPa 0,0 mm 0,0 km/h (0 Bft) O-NO 67 0 min -5,3 C 0,0 km/h (0 Bft)
09.03.2016 00:35 -2,1 C -2,3 C 79 % 1014,4 hPa 0,0 mm 0,3 km/h (0 Bft) NW 315 0 min -5,2 C 0,0 km/h (0 Bft)
09.03.2016 00:40 -2,0 C -2,3 C 79 % 1014,4 hPa 0,0 mm 0,3 km/h (0 Bft) SW 225 0 min -5,1 C 0,0 km/h (0 Bft)
09.03.2016 00:45 -2,1 C -2,3 C 79 % 1014,4 hPa 0,0 mm 0,0 km/h (0 Bft) W 270 0 min -5,2 C 0,0 km/h (0 Bft)
09.03.2016 00:50 -2,2 C -2,4 C 79 % 1014,2 hPa 0,0 mm 0,0 km/h (0 Bft) W-NW 292 0 min -5,3 C 0,0 km/h (0 Bft)
09.03.2016 00:55 -2,3 C -2,5 C 79 % 1014,2 hPa 0,0 mm 0,0 km/h (0 Bft) NW 315 0 min -5,4 C 0,0 km/h (0 Bft)
09.03.2016 01:00 -2,3 C -2,5 C 79 % 1014,2 hPa 0,0 mm 0,0 km/h (0 Bft) S-SO 157 0 min -5,4 C 0,0 km/h (0 Bft)
09.03.2016 01:05 -2,3 C -2,6 C 79 % 1014,2 hPa 0,0 mm 0,0 km/h (0 Bft) SO 135 0 min -5,4 C 0,0 km/h (0 Bft)
09.03.2016 01:10 -2,5 C -2,8 C 79 % 1014,2 hPa 0,0 mm 0,0 km/h (0 Bft) SO 135 0 min -5,6 C 0,0 km/h (0 Bft)
09.03.2016 01:15 -2,7 C -3,1 C 79 % 1014,2 hPa 0,0 mm 0,0 km/h (0 Bft) O-NO 67 0 min -5,8 C 0,0 km/h (0 Bft)
09.03.2016 01:20 -2,8 C -3,2 C 80 % 1014,2 hPa 0,0 mm 0,0 km/h (0 Bft) O 90 0 min -5,8 C 0,0 km/h (0 Bft)
09.03.2016 01:25 -2,9 C -3,4 C 82 % 1014,2 hPa 0,0 mm 0,0 km/h (0 Bft) O-SO 112 0 min -5,5 C 0,0 km/h (0 Bft)
09.03.2016 01:30 -3,1 C -3,5 C 83 % 1013,8 hPa 0,0 mm 0,0 km/h (0 Bft) O-SO 112 0 min -5,6 C 0,0 km/h (0 Bft)
09.03.2016 01:35 -3,1 C -3,5 C 83 % 1013,8 hPa 0,0 mm 0,0 km/h (0 Bft) SO 135 0 min -5,6 C 0,0 km/h (0 Bft)
09.03.2016 01:40 -3,3 C -3,7 C 84 % 1013,8 hPa 0,0 mm 0,0 km/h (0 Bft) SO 135 0 min -5,6 C 0,0 km/h (0 Bft)
09.03.2016 01:45 -3,5 C -4,0 C 84 % 1013,8 hPa 0,0 mm 0,0 km/h (0 Bft) O 90 0 min -5,8 C 0,0 km/h (0 Bft)
09.03.2016 01:50 -3,5 C -4,0 C 85 % 1013,6 hPa 0,0 mm 0,0 km/h (0 Bft) S-SO 157 0 min -5,6 C 0,0 km/h (0 Bft)
09.03.2016 01:55 -3,6 C -4,1 C 85 % 1013,6 hPa 0,0 mm 0,0 km/h (0 Bft) S-SO 157 0 min -5,7 C 0,0 km/h (0 Bft)
09.03.2016 02:00 -3,6 C -4,0 C 86 % 1013,6 hPa 0,0 mm 0,0 km/h (0 Bft) S-SO 157 0 min -5,6 C 0,0 km/h (0 Bft)
09.03.2016 02:05 -3,7 C -4,1 C 86 % 1013,6 hPa 0,0 mm 0,0 km/h (0 Bft) S-SO 157 0 min -5,7 C 0,0 km/h (0 Bft)
09.03.2016 02:10 -3,5 C -3,9 C 87 % 1013,5 hPa 0,0 mm 0,0 km/h (0 Bft) S-SO 157 0 min -5,3 C 0,0 km/h (0 Bft)
09.03.2016 02:15 -3,5 C -3,8 C 87 % 1013,5 hPa 0,0 mm 0,0 km/h (0 Bft) S-SO 157 0 min -5,3 C 0,0 km/h (0 Bft)
09.03.2016 02:20 -3,5 C -3,8 C 87 % 1013,5 hPa 0,0 mm 0,0 km/h (0 Bft) W-SW 247 0 min -5,3 C 0,0 km/h (0 Bft)
09.03.2016 02:25 -4,0 C -4,2 C 87 % 1013,5 hPa 0,0 mm 0,0 km/h (0 Bft) SW 225 0 min -5,8 C 0,0 km/h (0 Bft)
09.03.2016 02:30 -4,2 C -4,4 C 86 % 1013,1 hPa 0,0 mm 0,0 km/h (0 Bft) O 90 0 min -6,2 C 0,0 km/h (0 Bft)
09.03.2016 02:35 -4,1 C -4,3 C 80 % 1013,1 hPa 0,0 mm 0,0 km/h (0 Bft) SO 135 0 min -7,0 C 0,0 km/h (0 Bft)
09.03.2016 02:40 -4,2 C -4,4 C 86 % 1013,1 hPa 0,0 mm 0,0 km/h (0 Bft) S 180 0 min -6,2 C 0,0 km/h (0 Bft)
09.03.2016 02:45 -4,3 C -4,5 C 86 % 1013,1 hPa 0,0 mm 0,0 km/h (0 Bft) O-SO 112 0 min -6,3 C 0,0 km/h (0 Bft)
09.03.2016 02:50 -4,1 C -4,4 C 86 % 1012,8 hPa 0,0 mm 0,0 km/h (0 Bft) S-SO 157 0 min -6,1 C 0,0 km/h (0 Bft)
09.03.2016 02:54 -3,9 C -4,3 C 87 % 1012,8 hPa 0,0 mm 0,0 km/h (0 Bft) O-SO 112 0 min -5,7 C 0,0 km/h (0 Bft)
09.03.2016 02:55 -3,9 C -4,3 C 87 % 1012,8 hPa 0,0 mm 0,0 km/h (0 Bft) O-SO 112 0 min -5,7 C 0,0 km/h (0 Bft)
09.03.2016 03:00 -4,0 C -4,3 C 87 % 1012,8 hPa 0,0 mm 0,0 km/h (0 Bft) NO 45 0 min -5,8 C 0,0 km/h (0 Bft)
09.03.2016 03:05 -4,1 C -4,4 C 87 % 1012,8 hPa 0,0 mm 0,0 km/h (0 Bft) S 180 0 min -5,9 C 0,0 km/h (0 Bft)
09.03.2016 03:10 -4,1 C -4,4 C 87 % 1012,4 hPa 0,0 mm 0,0 km/h (0 Bft) NO 45 0 min -5,9 C 0,0 km/h (0 Bft)
09.03.2016 03:15 -4,2 C -4,4 C 87 % 1012,4 hPa 0,0 mm 0,0 km/h (0 Bft) NO 45 0 min -6,0 C 0,0 km/h (0 Bft)
09.03.2016 03:20 -4,3 C -4,5 C 86 % 1012,4 hPa 0,0 mm 0,0 km/h (0 Bft) NO 45 0 min -6,3 C 0,0 km/h (0 Bft)
09.03.2016 03:25 -4,7 C -4,8 C 86 % 1012,4 hPa 0,0 mm 0,0 km/h (0 Bft) NW 315 0 min -6,7 C 0,0 km/h (0 Bft)
09.03.2016 03:30 -5,0 C -5,2 C 86 % 1012,3 hPa 0,0 mm 0,0 km/h (0 Bft) NW 315 0 min -7,0 C 0,0 km/h (0 Bft)
09.03.2016 03:35 -4,9 C -5,2 C 85 % 1012,3 hPa 0,0 mm 0,0 km/h (0 Bft) O-SO 112 0 min -7,0 C 0,0 km/h (0 Bft)
09.03.2016 03:40 -4,6 C -5,1 C 86 % 1012,3 hPa 0,0 mm 0,0 km/h (0 Bft) S-SO 157 0 min -6,6 C 0,0 km/h (0 Bft)
09.03.2016 03:45 -4,6 C -5,1 C 86 % 1012,3 hPa 0,0 mm 0,0 km/h (0 Bft) O-SO 112 0 min -6,6 C 0,0 km/h (0 Bft)
09.03.2016 03:50 -4,8 C -5,3 C 86 % 1012,2 hPa 0,0 mm 0,0 km/h (0 Bft) S 180 0 min -6,8 C 0,0 km/h (0 Bft)
09.03.2016 03:55 -4,8 C -5,4 C 86 % 1012,2 hPa 0,0 mm 0,0 km/h (0 Bft) S-SO 157 0 min -6,8 C 0,0 km/h (0 Bft)
09.03.2016 04:00 -4,8 C -5,4 C 86 % 1012,2 hPa 0,0 mm 0,0 km/h (0 Bft) NO 45 0 min -6,8 C 0,0 km/h (0 Bft)
09.03.2016 04:05 -5,0 C -5,6 C 87 % 1012,2 hPa 0,0 mm 0,0 km/h (0 Bft) W-SW 247 0 min -6,8 C 0,0 km/h (0 Bft)
09.03.2016 04:10 -4,9 C -5,5 C 87 % 1011,9 hPa 0,0 mm 0,0 km/h (0 Bft) W-SW 247 0 min -6,7 C 0,0 km/h (0 Bft)
09.03.2016 04:15 -4,5 C -5,1 C 87 % 1011,9 hPa 0,0 mm 0,0 km/h (0 Bft) S 180 0 min -6,3 C 0,0 km/h (0 Bft)
09.03.2016 04:20 -4,3 C -4,8 C 88 % 1011,9 hPa 0,0 mm 0,0 km/h (0 Bft) SO 135 0 min -6,0 C 0,0 km/h (0 Bft)
09.03.2016 04:25 -4,1 C -4,5 C 88 % 1011,9 hPa 0,0 mm 0,0 km/h (0 Bft) O-SO 112 0 min -5,8 C 0,0 km/h (0 Bft)
09.03.2016 04:30 -4,2 C -4,5 C 88 % 1011,6 hPa 0,0 mm 0,0 km/h (0 Bft) N-NW 337 0 min -5,9 C 0,0 km/h (0 Bft)
09.03.2016 04:35 -4,7 C -4,9 C 88 % 1011,6 hPa 0,0 mm 0,0 km/h (0 Bft) W 270 0 min -6,4 C 0,0 km/h (0 Bft)
09.03.2016 04:40 -4,8 C -4,9 C 88 % 1011,6 hPa 0,0 mm 0,0 km/h (0 Bft) NO 45 0 min -6,5 C 0,0 km/h (0 Bft)
09.03.2016 04:45 -4,7 C -4,9 C 88 % 1011,6 hPa 0,0 mm 0,0 km/h (0 Bft) W-SW 247 0 min -6,4 C 0,0 km/h (0 Bft)
09.03.2016 04:50 -4,7 C -4,9 C 88 % 1011,3 hPa 0,0 mm 0,0 km/h (0 Bft) W 270 0 min -6,4 C 0,0 km/h (0 Bft)
09.03.2016 04:55 -4,6 C -4,8 C 87 % 1011,3 hPa 0,0 mm 0,0 km/h (0 Bft) NW 315 0 min -6,4 C 0,0 km/h (0 Bft)
09.03.2016 05:00 -4,6 C -4,7 C 87 % 1011,3 hPa 0,0 mm 0,0 km/h (0 Bft) W-NW 292 0 min -6,4 C 0,0 km/h (0 Bft)
09.03.2016 05:05 -4,5 C -4,7 C 87 % 1011,3 hPa 0,0 mm 0,0 km/h (0 Bft) W 270 0 min -6,3 C 0,0 km/h (0 Bft)
09.03.2016 05:10 -4,5 C -4,5 C 82 % 1011,1 hPa 0,0 mm 0,0 km/h (0 Bft) N-NO 22 0 min -7,1 C 0,0 km/h (0 Bft)
09.03.2016 05:15 -4,3 C -4,3 C 82 % 1011,1 hPa 0,0 mm 0,0 km/h (0 Bft) N 360 0 min -6,9 C 0,0 km/h (0 Bft)
09.03.2016 05:20 -4,3 C -4,4 C 87 % 1011,1 hPa 0,0 mm 0,0 km/h (0 Bft) W-NW 292 0 min -6,1 C 0,0 km/h (0 Bft)
09.03.2016 05:25 -4,2 C -4,3 C 87 % 1011,1 hPa 0,0 mm 0,0 km/h (0 Bft) NW 315 0 min -6,0 C 0,0 km/h (0 Bft)
09.03.2016 05:30 -4,2 C -4,3 C 87 % 1010,9 hPa 0,0 mm 0,0 km/h (0 Bft) W-SW 247 0 min -6,0 C 0,0 km/h (0 Bft)
09.03.2016 05:35 -3,9 C -4,1 C 88 % 1010,9 hPa 0,0 mm 0,0 km/h (0 Bft) S 180 0 min -5,6 C 0,0 km/h (0 Bft)
09.03.2016 05:40 -3,7 C -3,9 C 88 % 1010,9 hPa 0,0 mm 0,0 km/h (0 Bft) O-SO 112 0 min -5,4 C 0,0 km/h (0 Bft)
09.03.2016 05:45 -3,6 C -3,8 C 88 % 1010,9 hPa 0,0 mm 0,0 km/h (0 Bft) SO 135 0 min -5,3 C 0,0 km/h (0 Bft)
09.03.2016 05:50 -3,5 C -3,7 C 88 % 1010,8 hPa 0,0 mm 0,6 km/h (0 Bft) S-SW 202 0 min -5,2 C 0,0 km/h (0 Bft)
09.03.2016 05:54 -3,4 C -3,4 C 83 % 1010,8 hPa 0,0 mm 0,9 km/h (0 Bft) SW 225 0 min -5,9 C 0,0 km/h (0 Bft)
09.03.2016 05:56 -3,4 C -3,4 C 83 % 1010,8 hPa 0,0 mm 0,9 km/h (0 Bft) SW 225 0 min -5,9 C 0,0 km/h (0 Bft)
09.03.2016 06:00 -3,2 C -3,3 C 83 % 1010,8 hPa 0,0 mm 0,3 km/h (0 Bft) O 90 0 min -5,7 C 0,0 km/h (0 Bft)
09.03.2016 06:05 -3,1 C -3,3 C 88 % 1010,8 hPa 0,0 mm 0,0 km/h (0 Bft) O-SO 112 0 min -4,8 C 0,0 km/h (0 Bft)
09.03.2016 06:10 -3,1 C -3,1 C 83 % 1010,4 hPa 0,0 mm 0,6 km/h (0 Bft) W-SW 247 0 min -5,6 C 0,0 km/h (0 Bft)
09.03.2016 06:15 -3,0 C -3,1 C 83 % 1010,4 hPa 0,0 mm 0,6 km/h (0 Bft) SO 135 0 min -5,5 C 0,0 km/h (0 Bft)
09.03.2016 06:20 -3,0 C -3,0 C 83 % 1010,4 hPa 0,0 mm 0,6 km/h (0 Bft) NO 45 0 min -5,5 C 0,0 km/h (0 Bft)
09.03.2016 06:25 -2,9 C -3,1 C 89 % 1010,4 hPa 0,0 mm 0,6 km/h (0 Bft) W-NW 292 0 min -4,5 C 0,0 km/h (0 Bft)
09.03.2016 06:30 -2,8 C -3,0 C 89 % 1009,9 hPa 0,0 mm 0,0 km/h (0 Bft) O-NO 67 0 min -4,4 C 0,0 km/h (0 Bft)
09.03.2016 06:35 -2,7 C -2,9 C 89 % 1009,9 hPa 0,0 mm 0,3 km/h (0 Bft) NO 45 0 min -4,3 C 0,0 km/h (0 Bft)
09.03.2016 06:40 -2,8 C -3,0 C 89 % 1009,9 hPa 0,0 mm 0,3 km/h (0 Bft) SO 135 0 min -4,4 C 0,0 km/h (0 Bft)
09.03.2016 06:45 -2,7 C -2,9 C 89 % 1009,9 hPa 0,0 mm 0,0 km/h (0 Bft) O-NO 67 0 min -4,3 C 0,0 km/h (0 Bft)
09.03.2016 06:50 -2,8 C -3,0 C 88 % 1010,0 hPa 0,0 mm 0,0 km/h (0 Bft) W-SW 247 0 min -4,5 C 0,0 km/h (0 Bft)
09.03.2016 06:55 -3,2 C -3,4 C 88 % 1010,0 hPa 0,0 mm 0,0 km/h (0 Bft) NO 45 0 min -4,9 C 0,0 km/h (0 Bft)
09.03.2016 07:00 -3,2 C -3,4 C 88 % 1010,0 hPa 0,0 mm 0,0 km/h (0 Bft) W 270 0 min -4,9 C 0,0 km/h (0 Bft)
09.03.2016 07:05 -3,0 C -3,3 C 88 % 1010,0 hPa 0,0 mm 0,0 km/h (0 Bft) N-NO 22 0 min -4,7 C 0,0 km/h (0 Bft)
09.03.2016 07:10 -3,2 C -3,4 C 88 % 1009,7 hPa 0,0 mm 0,3 km/h (0 Bft) NW 315 0 min -4,9 C 0,0 km/h (0 Bft)
09.03.2016 07:15 -3,7 C -3,9 C 87 % 1009,7 hPa 0,0 mm 0,6 km/h (0 Bft) W-SW 247 0 min -5,5 C 0,0 km/h (0 Bft)
09.03.2016 07:20 -3,7 C -4,0 C 87 % 1009,7 hPa 0,0 mm 0,3 km/h (0 Bft) SO 135 0 min -5,5 C 0,0 km/h (0 Bft)
09.03.2016 07:25 -3,5 C -3,8 C 83 % 1009,7 hPa 0,0 mm 0,3 km/h (0 Bft) O-SO 112 0 min -6,0 C 0,0 km/h (0 Bft)
09.03.2016 07:30 -3,5 C -3,8 C 83 % 1009,6 hPa 0,0 mm 0,3 km/h (0 Bft) O 90 0 min -6,0 C 0,0 km/h (0 Bft)
09.03.2016 07:35 -3,6 C -3,8 C 83 % 1009,6 hPa 0,0 mm 0,0 km/h (0 Bft) NO 45 0 min -6,1 C 0,0 km/h (0 Bft)
09.03.2016 07:40 -3,7 C -3,9 C 88 % 1009,6 hPa 0,0 mm 0,0 km/h (0 Bft) O-NO 67 0 min -5,4 C 0,0 km/h (0 Bft)
09.03.2016 07:45 -3,7 C -3,9 C 87 % 1009,6 hPa 0,0 mm 0,0 km/h (0 Bft) O-NO 67 0 min -5,5 C 0,0 km/h (0 Bft)
09.03.2016 07:50 -4,0 C -4,0 C 83 % 1009,1 hPa 0,0 mm 0,0 km/h (0 Bft) N-NW 337 0 min -6,4 C 0,0 km/h (0 Bft)
09.03.2016 07:55 -4,1 C -3,9 C 83 % 1009,1 hPa 0,0 mm 0,0 km/h (0 Bft) NW 315 0 min -6,5 C 0,0 km/h (0 Bft)
09.03.2016 08:00 -4,1 C -3,9 C 83 % 1009,1 hPa 0,0 mm 0,0 km/h (0 Bft) W 270 0 min -6,5 C 0,0 km/h (0 Bft)
09.03.2016 08:05 -4,3 C -3,9 C 82 % 1009,1 hPa 0,0 mm 0,0 km/h (0 Bft) NW 315 0 min -6,9 C 0,0 km/h (0 Bft)
09.03.2016 08:10 -4,2 C -3,7 C 82 % 1008,9 hPa 0,0 mm 0,3 km/h (0 Bft) O-SO 112 0 min -6,8 C 0,0 km/h (0 Bft)
09.03.2016 08:15 -3,7 C -2,8 C 83 % 1008,9 hPa 0,0 mm 1,2 km/h (1 Bft) NO 45 0 min -6,2 C 7,2 km/h (2 Bft)
09.03.2016 08:20 -3,4 C -2,2 C 83 % 1008,9 hPa 0,0 mm 3,3 km/h (1 Bft) NO 45 0 min -5,9 C 8,9 km/h (2 Bft)
09.03.2016 08:25 -3,0 C -2,5 C 83 % 1008,9 hPa 0,0 mm 6,6 km/h (2 Bft) NO 45 0 min -5,5 C 9,5 km/h (2 Bft)
09.03.2016 08:30 -3,0 C -2,8 C 83 % 1009,0 hPa 0,0 mm 6,9 km/h (2 Bft) NO 45 0 min -5,5 C 10,4 km/h (2 Bft)
09.03.2016 08:35 -3,0 C -2,8 C 83 % 1009,0 hPa 0,0 mm 8,3 km/h (2 Bft) O-NO 67 0 min -5,5 C 9,8 km/h (2 Bft)
09.03.2016 08:40 -2,8 C -2,8 C 83 % 1009,0 hPa 0,0 mm 8,3 km/h (2 Bft) O-NO 67 0 min -5,3 C 14,6 km/h (3 Bft)
09.03.2016 08:45 -2,6 C -1,1 C 83 % 1009,0 hPa 0,0 mm 4,2 km/h (1 Bft) NW 315 0 min -5,1 C 3,9 km/h (1 Bft)
09.03.2016 08:50 -2,4 C -0,9 C 83 % 1009,1 hPa 0,0 mm 2,1 km/h (1 Bft) NO 45 0 min -4,9 C 6,3 km/h (2 Bft)
09.03.2016 08:55 -2,4 C -0,8 C 83 % 1009,1 hPa 0,0 mm 4,5 km/h (1 Bft) O-NO 67 0 min -4,9 C 8,6 km/h (2 Bft)
09.03.2016 08:57 -2,4 C -0,8 C 83 % 1009,1 hPa 0,0 mm 4,5 km/h (1 Bft) O-NO 67 0 min -4,9 C 8,6 km/h (2 Bft)
09.03.2016 09:00 -2,4 C -1,4 C 83 % 1009,1 hPa 0,0 mm 6,9 km/h (2 Bft) N-NO 22 0 min -4,9 C 6,0 km/h (2 Bft)
09.03.2016 09:05 -2,2 C -0,7 C 83 % 1009,1 hPa 0,0 mm 7,7 km/h (2 Bft) O-NO 67 0 min -4,7 C 10,7 km/h (2 Bft)
09.03.2016 09:10 -2,2 C -0,7 C 83 % 1008,8 hPa 0,0 mm 7,7 km/h (2 Bft) NO 45 0 min -4,7 C 11,9 km/h (2 Bft)
09.03.2016 09:15 -2,0 C 0,4 C 83 % 1008,8 hPa 0,0 mm 7,5 km/h (2 Bft) O-NO 67 0 min -4,5 C 9,5 km/h (2 Bft)
09.03.2016 09:20 -2,0 C 0,1 C 83 % 1008,8 hPa 0,0 mm 8,0 km/h (2 Bft) O-NO 67 0 min -4,5 C 14,0 km/h (3 Bft)
09.03.2016 09:25 -2,0 C 0,4 C 83 % 1008,8 hPa 0,0 mm 6,3 km/h (2 Bft) O-SO 112 0 min -4,5 C 3,9 km/h (1 Bft)
09.03.2016 09:30 -1,7 C 1,4 C 83 % 1008,9 hPa 0,0 mm 4,8 km/h (1 Bft) O-NO 67 0 min -4,2 C 9,5 km/h (2 Bft)
09.03.2016 09:35 -1,7 C 0,9 C 82 % 1008,9 hPa 0,0 mm 6,0 km/h (2 Bft) O-NO 67 0 min -4,4 C 8,9 km/h (2 Bft)
09.03.2016 09:40 -1,7 C 0,3 C 82 % 1008,9 hPa 0,0 mm 8,0 km/h (2 Bft) O-NO 67 0 min -4,4 C 8,0 km/h (2 Bft)
09.03.2016 09:45 -1,8 C 0,1 C 82 % 1008,9 hPa 0,0 mm 7,2 km/h (2 Bft) O-NO 67 0 min -4,5 C 3,3 km/h (1 Bft)
09.03.2016 09:50 -1,7 C 1,2 C 82 % 1008,7 hPa 0,0 mm 4,8 km/h (1 Bft) NO 45 0 min -4,4 C 14,9 km/h (3 Bft)
09.03.2016 09:55 -1,3 C 2,0 C 82 % 1008,7 hPa 0,0 mm 4,5 km/h (1 Bft) O-NO 67 0 min -4,0 C 9,2 km/h (2 Bft)
09.03.2016 10:00 -1,3 C 2,1 C 82 % 1008,7 hPa 0,0 mm 6,0 km/h (2 Bft) N-NO 22 0 min -4,0 C 0,0 km/h (0 Bft)
09.03.2016 10:05 -0,6 C 4,4 C 82 % 1008,7 hPa 0,0 mm 5,4 km/h (1 Bft) O-NO 67 0 min -3,3 C 5,4 km/h (1 Bft)
09.03.2016 10:10 -0,6 C 4,5 C 81 % 1008,8 hPa 0,0 mm 5,4 km/h (1 Bft) NO 45 5 min -3,4 C 11,0 km/h (2 Bft)
09.03.2016 10:15 -1,0 C 2,9 C 80 % 1008,8 hPa 0,0 mm 6,9 km/h (2 Bft) NO 45 0 min -4,0 C 11,6 km/h (2 Bft)
09.03.2016 10:20 -0,9 C 3,6 C 80 % 1008,8 hPa 0,0 mm 6,0 km/h (2 Bft) O-NO 67 0 min -3,9 C 5,1 km/h (1 Bft)
09.03.2016 10:25 -0,9 C 3,7 C 80 % 1008,8 hPa 0,0 mm 4,2 km/h (1 Bft) O-NO 67 0 min -3,9 C 6,0 km/h (2 Bft)
09.03.2016 10:30 -0,7 C 4,0 C 80 % 1007,6 hPa 0,0 mm 4,2 km/h (1 Bft) N-NO 22 0 min -3,7 C 5,7 km/h (1 Bft)
09.03.2016 10:35 -0,7 C 4,0 C 79 % 1007,6 hPa 0,0 mm 5,4 km/h (1 Bft) O-NO 67 5 min -3,9 C 5,4 km/h (1 Bft)
09.03.2016 10:40 -0,9 C 3,4 C 79 % 1007,6 hPa 0,0 mm 5,7 km/h (1 Bft) O-NO 67 0 min -4,1 C 7,5 km/h (2 Bft)
09.03.2016 10:45 -0,9 C 3,3 C 79 % 1007,6 hPa 0,0 mm 4,8 km/h (1 Bft) O-NO 67 0 min -4,1 C 3,3 km/h (1 Bft)
09.03.2016 10:50 -0,7 C 3,3 C 79 % 1008,6 hPa 0,0 mm 2,7 km/h (1 Bft) O 90 0 min -3,9 C 0,0 km/h (0 Bft)
09.03.2016 10:55 -0,6 C 3,7 C 79 % 1008,6 hPa 0,0 mm 0,9 km/h (0 Bft) NO 45 0 min -3,8 C 4,8 km/h (1 Bft)
09.03.2016 11:00 -0,1 C 4,6 C 78 % 1008,6 hPa 0,0 mm 2,1 km/h (1 Bft) NO 45 0 min -3,5 C 11,0 km/h (2 Bft)
09.03.2016 11:05 0,8 C 7,1 C 78 % 1008,6 hPa 0,0 mm 3,6 km/h (1 Bft) NO 45 0 min -2,6 C 7,7 km/h (2 Bft)
09.03.2016 11:10 0,9 C 7,9 C 77 % 1008,6 hPa 0,0 mm 3,6 km/h (1 Bft) S-SO 157 5 min -2,7 C 0,0 km/h (0 Bft)
09.03.2016 11:15 1,4 C 8,7 C 76 % 1008,6 hPa 0,0 mm 3,0 km/h (1 Bft) SO 135 5 min -2,4 C 0,0 km/h (0 Bft)
09.03.2016 11:20 1,9 C 9,5 C 76 % 1008,6 hPa 0,0 mm 3,3 km/h (1 Bft) O 90 5 min -1,9 C 8,3 km/h (2 Bft)
09.03.2016 11:25 1,6 C 9,1 C 75 % 1008,6 hPa 0,0 mm 5,1 km/h (1 Bft) O-NO 67 5 min -2,3 C 14,0 km/h (3 Bft)
09.03.2016 11:30 1,6 C 9,1 C 75 % 1009,3 hPa 0,0 mm 5,7 km/h (1 Bft) O-NO 67 5 min -2,3 C 11,9 km/h (2 Bft)
09.03.2016 11:35 1,8 C 9,2 C 74 % 1009,3 hPa 0,0 mm 6,3 km/h (2 Bft) NO 45 5 min -2,3 C 8,6 km/h (2 Bft)
09.03.2016 11:40 1,8 C 8,9 C 73 % 1009,3 hPa 0,0 mm 6,6 km/h (2 Bft) O 90 5 min -2,5 C 7,7 km/h (2 Bft)
09.03.2016 11:45 1,7 C 8,7 C 73 % 1009,3 hPa 0,0 mm 7,5 km/h (2 Bft) O-NO 67 5 min -2,6 C 11,6 km/h (2 Bft)
09.03.2016 11:50 1,7 C 8,4 C 72 % 1009,6 hPa 0,0 mm 7,2 km/h (2 Bft) O-NO 67 5 min -2,8 C 8,9 km/h (2 Bft)
09.03.2016 11:55 2,2 C 8,2 C 72 % 1009,6 hPa 0,0 mm 6,9 km/h (2 Bft) O-NO 67 5 min -2,3 C 8,3 km/h (2 Bft)
09.03.2016 11:58 2,2 C 8,2 C 72 % 1009,6 hPa 0,0 mm 6,9 km/h (2 Bft) O-NO 67 3 min -2,3 C 8,3 km/h (2 Bft)
09.03.2016 12:05 2,7 C 6,0 C 69 % 1009,6 hPa 0,0 mm 8,0 km/h (2 Bft) O 90 0 min -2,4 C 8,3 km/h (2 Bft)
09.03.2016 12:10 2,8 C 5,7 C 69 % 1009,5 hPa 0,0 mm 9,2 km/h (2 Bft) NO 45 0 min -2,3 C 15,2 km/h (3 Bft)
09.03.2016 12:15 2,7 C 6,0 C 68 % 1009,5 hPa 0,0 mm 9,2 km/h (2 Bft) S-SO 157 0 min -2,6 C 10,1 km/h (2 Bft)
09.03.2016 12:20 2,9 C 6,3 C 68 % 1009,5 hPa 0,0 mm 8,6 km/h (2 Bft) O-NO 67 0 min -2,4 C 18,2 km/h (3 Bft)
09.03.2016 12:25 3,2 C 6,5 C 67 % 1009,5 hPa 0,0 mm 9,2 km/h (2 Bft) N-NO 22 0 min -2,3 C 4,5 km/h (1 Bft)
09.03.2016 12:30 3,3 C 7,1 C 66 % 1009,3 hPa 0,0 mm 9,8 km/h (2 Bft) O-NO 67 0 min -2,4 C 24,4 km/h (4 Bft)
09.03.2016 12:35 3,2 C 6,9 C 65 % 1009,3 hPa 0,0 mm 11,6 km/h (2 Bft) N-NO 22 0 min -2,7 C 10,7 km/h (2 Bft)
09.03.2016 12:40 3,1 C 6,5 C 64 % 1009,3 hPa 0,0 mm 14,0 km/h (3 Bft) NO 45 0 min -3,0 C 14,6 km/h (3 Bft)
09.03.2016 12:45 3,3 C 7,3 C 65 % 1009,3 hPa 0,0 mm 11,6 km/h (2 Bft) O 90 0 min -2,6 C 18,2 km/h (3 Bft)
09.03.2016 12:50 3,4 C 7,9 C 65 % 1009,0 hPa 0,0 mm 10,7 km/h (2 Bft) NO 45 0 min -2,5 C 18,5 km/h (3 Bft)
09.03.2016 12:55 3,5 C 8,1 C 65 % 1009,0 hPa 0,0 mm 11,0 km/h (2 Bft) O-NO 67 0 min -2,4 C 13,4 km/h (3 Bft)
09.03.2016 13:00 3,5 C 7,6 C 65 % 1009,0 hPa 0,0 mm 12,2 km/h (2 Bft) O-NO 67 0 min -2,4 C 26,8 km/h (4 Bft)
09.03.2016 13:05 3,6 C 7,5 C 64 % 1009,0 hPa 0,0 mm 14,9 km/h (3 Bft) O-NO 67 0 min -2,6 C 17,3 km/h (3 Bft)
09.03.2016 13:10 3,7 C 7,1 C 64 % 1008,7 hPa 0,0 mm 13,7 km/h (3 Bft) O-NO 67 0 min -2,5 C 17,9 km/h (3 Bft)
09.03.2016 13:15 3,8 C 8,1 C 64 % 1008,7 hPa 0,0 mm 10,7 km/h (2 Bft) O-NO 67 0 min -2,4 C 13,1 km/h (3 Bft)
09.03.2016 13:20 4,2 C 8,3 C 63 % 1008,7 hPa 0,0 mm 11,0 km/h (2 Bft) O-NO 67 0 min -2,2 C 12,2 km/h (2 Bft)
09.03.2016 13:25 4,2 C 8,7 C 64 % 1008,7 hPa 0,0 mm 10,7 km/h (2 Bft) O-NO 67 0 min -2,0 C 15,2 km/h (3 Bft)
09.03.2016 13:30 4,1 C 8,7 C 63 % 1008,4 hPa 0,0 mm 10,7 km/h (2 Bft) S-SW 202 0 min -2,3 C 12,8 km/h (3 Bft)
09.03.2016 13:35 4,2 C 8,8 C 63 % 1008,4 hPa 0,0 mm 11,0 km/h (2 Bft) O-NO 67 0 min -2,2 C 11,3 km/h (2 Bft)
09.03.2016 13:40 4,4 C 9,4 C 64 % 1008,4 hPa 0,0 mm 9,2 km/h (2 Bft) NO 45 0 min -1,8 C 9,8 km/h (2 Bft)
09.03.2016 13:45 4,6 C 9,2 C 64 % 1008,4 hPa 0,0 mm 10,4 km/h (2 Bft) NW 315 0 min -1,6 C 20,3 km/h (4 Bft)
09.03.2016 13:50 4,7 C 8,9 C 64 % 1008,0 hPa 0,0 mm 11,6 km/h (2 Bft) O-NO 67 0 min -1,5 C 14,3 km/h (3 Bft)
09.03.2016 13:55 4,7 C 8,7 C 64 % 1008,0 hPa 0,0 mm 12,8 km/h (3 Bft) O-NO 67 0 min -1,5 C 18,5 km/h (3 Bft)
09.03.2016 14:00 4,7 C 8,6 C 64 % 1008,0 hPa 0,0 mm 12,2 km/h (2 Bft) O-NO 67 0 min -1,5 C 17,3 km/h (3 Bft)
09.03.2016 14:05 5,0 C 9,0 C 63 % 1008,0 hPa 0,0 mm 11,3 km/h (2 Bft) O-NO 67 0 min -1,4 C 10,7 km/h (2 Bft)
09.03.2016 14:10 4,9 C 9,1 C 63 % 1007,6 hPa 0,0 mm 10,7 km/h (2 Bft) O-NO 67 0 min -1,5 C 8,6 km/h (2 Bft)
09.03.2016 14:15 5,0 C 9,4 C 63 % 1007,6 hPa 0,0 mm 10,4 km/h (2 Bft) O 90 0 min -1,4 C 10,7 km/h (2 Bft)
09.03.2016 14:20 4,9 C 9,5 C 63 % 1007,6 hPa 0,0 mm 10,1 km/h (2 Bft) O-NO 67 0 min -1,5 C 10,7 km/h (2 Bft)
09.03.2016 14:25 5,0 C 9,2 C 63 % 1007,6 hPa 0,0 mm 10,4 km/h (2 Bft) O-NO 67 0 min -1,4 C 7,5 km/h (2 Bft)
09.03.2016 14:30 5,0 C 9,4 C 63 % 1007,0 hPa 0,0 mm 10,4 km/h (2 Bft) NO 45 0 min -1,4 C 13,1 km/h (3 Bft)
09.03.2016 14:35 5,2 C 9,4 C 63 % 1007,0 hPa 0,0 mm 10,4 km/h (2 Bft) O-NO 67 0 min -1,3 C 15,2 km/h (3 Bft)
09.03.2016 14:40 5,4 C 9,7 C 63 % 1007,0 hPa 0,0 mm 10,1 km/h (2 Bft) O-NO 67 0 min -1,1 C 16,4 km/h (3 Bft)
09.03.2016 14:45 5,2 C 9,0 C 62 % 1007,0 hPa 0,0 mm 11,9 km/h (2 Bft) O-NO 67 0 min -1,5 C 18,8 km/h (3 Bft)
09.03.2016 14:50 5,2 C 8,5 C 62 % 1006,1 hPa 0,0 mm 13,1 km/h (3 Bft) O-SO 112 0 min -1,5 C 6,3 km/h (2 Bft)
09.03.2016 14:55 5,6 C 9,2 C 62 % 1006,1 hPa 0,0 mm 11,3 km/h (2 Bft) O-NO 67 0 min -1,1 C 26,2 km/h (4 Bft)
09.03.2016 14:59 5,6 C 9,2 C 62 % 1006,1 hPa 0,0 mm 11,3 km/h (2 Bft) O-NO 67 0 min -1,1 C 26,2 km/h (4 Bft)
09.03.2016 15:00 5,2 C 8,7 C 62 % 1006,1 hPa 0,0 mm 11,6 km/h (2 Bft) O-NO 67 0 min -1,5 C 14,9 km/h (3 Bft)
09.03.2016 15:05 5,1 C 8,4 C 63 % 1006,1 hPa 0,0 mm 14,9 km/h (3 Bft) NO 45 0 min -1,4 C 19,7 km/h (3 Bft)
09.03.2016 15:10 5,1 C 7,7 C 63 % 1005,6 hPa 0,0 mm 14,0 km/h (3 Bft) O 90 0 min -1,4 C 10,7 km/h (2 Bft)
09.03.2016 15:15 5,1 C 8,2 C 63 % 1005,6 hPa 0,0 mm 11,9 km/h (2 Bft) NO 45 0 min -1,4 C 9,5 km/h (2 Bft)
09.03.2016 15:20 5,1 C 8,1 C 63 % 1005,6 hPa 0,0 mm 11,6 km/h (2 Bft) NW 315 0 min -1,4 C 15,2 km/h (3 Bft)
09.03.2016 15:25 5,0 C 7,6 C 63 % 1005,6 hPa 0,0 mm 13,4 km/h (3 Bft) O-NO 67 0 min -1,4 C 16,4 km/h (3 Bft)
09.03.2016 15:30 5,1 C 8,1 C 63 % 1005,7 hPa 0,0 mm 11,0 km/h (2 Bft) NO 45 0 min -1,4 C 12,5 km/h (3 Bft)
09.03.2016 15:35 5,0 C 7,9 C 63 % 1005,7 hPa 0,0 mm 11,6 km/h (2 Bft) O-SO 112 0 min -1,4 C 8,0 km/h (2 Bft)
09.03.2016 15:40 4,9 C 7,9 C 63 % 1005,7 hPa 0,0 mm 11,3 km/h (2 Bft) NO 45 0 min -1,5 C 13,7 km/h (3 Bft)
09.03.2016 15:45 4,7 C 8,6 C 63 % 1005,7 hPa 0,0 mm 8,6 km/h (2 Bft) O-NO 67 5 min -1,7 C 9,5 km/h (2 Bft)
09.03.2016 15:50 4,5 C 8,3 C 63 % 1005,4 hPa 0,0 mm 10,1 km/h (2 Bft) O-NO 67 5 min -1,9 C 14,9 km/h (3 Bft)
09.03.2016 15:55 4,3 C 8,1 C 63 % 1005,4 hPa 0,0 mm 10,7 km/h (2 Bft) N-NO 22 5 min -2,1 C 6,6 km/h (2 Bft)
09.03.2016 16:00 4,3 C 8,6 C 63 % 1005,4 hPa 0,0 mm 9,2 km/h (2 Bft) O-NO 67 5 min -2,1 C 14,6 km/h (3 Bft)
09.03.2016 16:05 4,1 C 7,6 C 63 % 1005,4 hPa 0,0 mm 9,2 km/h (2 Bft) O-NO 67 5 min -2,3 C 11,9 km/h (2 Bft)
09.03.2016 16:10 4,2 C 7,0 C 64 % 1004,9 hPa 0,0 mm 10,1 km/h (2 Bft) NO 45 0 min -2,0 C 6,0 km/h (2 Bft)
09.03.2016 16:15 4,3 C 7,4 C 63 % 1004,9 hPa 0,0 mm 7,5 km/h (2 Bft) NO 45 0 min -2,1 C 6,9 km/h (2 Bft)
09.03.2016 16:20 4,3 C 7,7 C 64 % 1004,9 hPa 0,0 mm 6,3 km/h (2 Bft) NO 45 5 min -1,9 C 12,2 km/h (2 Bft)
09.03.2016 16:25 4,2 C 7,9 C 64 % 1004,9 hPa 0,0 mm 5,7 km/h (1 Bft) N-NO 22 5 min -2,0 C 5,1 km/h (1 Bft)
09.03.2016 16:30 4,3 C 7,7 C 64 % 1004,6 hPa 0,0 mm 5,7 km/h (1 Bft) NO 45 5 min -1,9 C 11,3 km/h (2 Bft)
09.03.2016 16:35 4,2 C 7,1 C 64 % 1004,6 hPa 0,0 mm 5,4 km/h (1 Bft) O-NO 67 5 min -2,0 C 6,3 km/h (2 Bft)
09.03.2016 16:40 4,2 C 6,3 C 65 % 1004,6 hPa 0,0 mm 6,9 km/h (2 Bft) O-SO 112 0 min -1,8 C 4,2 km/h (1 Bft)
09.03.2016 16:45 3,7 C 5,9 C 65 % 1004,6 hPa 0,0 mm 6,0 km/h (2 Bft) O-NO 67 0 min -2,3 C 10,1 km/h (2 Bft)
09.03.2016 16:50 3,7 C 5,7 C 65 % 1004,4 hPa 0,0 mm 5,7 km/h (1 Bft) O-NO 67 0 min -2,3 C 10,4 km/h (2 Bft)
09.03.2016 16:55 3,5 C 4,7 C 66 % 1004,4 hPa 0,0 mm 7,5 km/h (2 Bft) O-NO 67 0 min -2,2 C 6,0 km/h (2 Bft)
09.03.2016 17:00 3,5 C 4,6 C 66 % 1004,4 hPa 0,0 mm 6,0 km/h (2 Bft) O-NO 67 0 min -2,2 C 5,7 km/h (1 Bft)
09.03.2016 17:05 3,3 C 4,0 C 66 % 1004,4 hPa 0,0 mm 5,7 km/h (1 Bft) N-NO 22 0 min -2,4 C 6,6 km/h (2 Bft)
09.03.2016 17:10 3,3 C 3,6 C 66 % 1004,6 hPa 0,0 mm 6,6 km/h (2 Bft) NO 45 0 min -2,4 C 3,6 km/h (1 Bft)
09.03.2016 17:15 3,1 C 3,8 C 66 % 1004,6 hPa 0,0 mm 5,4 km/h (1 Bft) NO 45 0 min -2,6 C 12,5 km/h (3 Bft)
09.03.2016 17:20 3,0 C 3,5 C 66 % 1004,6 hPa 0,0 mm 4,2 km/h (1 Bft) O-NO 67 0 min -2,7 C 7,2 km/h (2 Bft)
09.03.2016 17:25 2,7 C 2,8 C 67 % 1004,6 hPa 0,0 mm 1,8 km/h (1 Bft) NO 45 0 min -2,8 C 0,0 km/h (0 Bft)
09.03.2016 17:30 2,5 C 2,5 C 68 % 1004,6 hPa 0,0 mm 2,1 km/h (1 Bft) O 90 0 min -2,8 C 4,5 km/h (1 Bft)
09.03.2016 17:35 2,3 C 2,2 C 68 % 1004,6 hPa 0,0 mm 3,6 km/h (1 Bft) O-NO 67 0 min -3,0 C 5,4 km/h (1 Bft)
09.03.2016 17:40 2,3 C 2,1 C 68 % 1004,6 hPa 0,0 mm 3,3 km/h (1 Bft) O-NO 67 0 min -3,0 C 0,0 km/h (0 Bft)
09.03.2016 17:45 2,0 C 1,8 C 68 % 1004,6 hPa 0,0 mm 2,4 km/h (1 Bft) O-NO 67 0 min -3,3 C 0,0 km/h (0 Bft)
09.03.2016 17:50 1,8 C 1,6 C 68 % 1004,6 hPa 0,0 mm 3,0 km/h (1 Bft) N-NW 337 0 min -3,5 C 7,2 km/h (2 Bft)
09.03.2016 17:55 1,7 C 1,4 C 69 % 1004,6 hPa 0,0 mm 3,0 km/h (1 Bft) N-NO 22 0 min -3,4 C 0,0 km/h (0 Bft)
09.03.2016 18:00 1,5 C 1,2 C 69 % 1004,6 hPa 0,0 mm 2,4 km/h (1 Bft) N-NO 22 0 min -3,6 C 0,0 km/h (0 Bft)
09.03.2016 18:05 1,2 C 0,7 C 69 % 1004,6 hPa 0,0 mm 0,0 km/h (0 Bft) S-SO 157 0 min -3,8 C 0,0 km/h (0 Bft)
09.03.2016 18:10 1,2 C 0,6 C 70 % 1004,8 hPa 0,0 mm 0,0 km/h (0 Bft) S-SO 157 0 min -3,7 C 0,0 km/h (0 Bft)
09.03.2016 18:15 0,9 C 0,3 C 73 % 1004,8 hPa 0,0 mm 0,0 km/h (0 Bft) O-SO 112 0 min -3,4 C 0,0 km/h (0 Bft)
09.03.2016 18:20 0,8 C 0,2 C 73 % 1004,8 hPa 0,0 mm 0,0 km/h (0 Bft) S 180 0 min -3,5 C 0,0 km/h (0 Bft)
09.03.2016 18:25 0,6 C 0,0 C 74 % 1004,8 hPa 0,0 mm 0,3 km/h (0 Bft) S-SO 157 0 min -3,5 C 3,0 km/h (1 Bft)
09.03.2016 18:30 0,4 C -0,2 C 75 % 1004,9 hPa 0,0 mm 0,6 km/h (0 Bft) S 180 0 min -3,5 C 0,0 km/h (0 Bft)
09.03.2016 18:35 0,2 C -0,3 C 76 % 1004,9 hPa 0,0 mm 0,9 km/h (0 Bft) S 180 0 min -3,5 C 3,0 km/h (1 Bft)
09.03.2016 18:40 0,1 C -0,4 C 77 % 1004,9 hPa 0,0 mm 1,2 km/h (1 Bft) S-SO 157 0 min -3,4 C 3,6 km/h (1 Bft)
09.03.2016 18:45 0,1 C -0,4 C 78 % 1004,9 hPa 0,0 mm 1,8 km/h (1 Bft) S-SO 157 0 min -3,3 C 3,0 km/h (1 Bft)
09.03.2016 18:50 0,0 C -0,5 C 78 % 1005,1 hPa 0,0 mm 2,1 km/h (1 Bft) S-SO 157 0 min -3,4 C 3,3 km/h (1 Bft)
09.03.2016 18:55 -0,2 C -0,7 C 78 % 1005,1 hPa 0,0 mm 1,8 km/h (1 Bft) SO 135 0 min -3,6 C 0,0 km/h (0 Bft)
09.03.2016 19:00 -0,4 C -0,9 C 78 % 1005,1 hPa 0,0 mm 0,9 km/h (0 Bft) O 90 0 min -3,8 C 0,0 km/h (0 Bft)
09.03.2016 19:05 -0,8 C -1,3 C 78 % 1005,1 hPa 0,0 mm 0,0 km/h (0 Bft) O-NO 67 0 min -4,1 C 0,0 km/h (0 Bft)
09.03.2016 19:09 -1,0 C -1,6 C 78 % 1005,2 hPa 0,0 mm 0,0 km/h (0 Bft) O 90 0 min -4,3 C 0,0 km/h (0 Bft)
09.03.2016 19:14 -1,0 C -1,6 C 78 % 1005,2 hPa 0,0 mm 0,0 km/h (0 Bft) O 90 0 min -4,3 C 0,0 km/h (0 Bft)
09.03.2016 19:15 -1,0 C -1,7 C 79 % 1005,2 hPa 0,0 mm 0,0 km/h (0 Bft) O-NO 67 0 min -4,2 C 0,0 km/h (0 Bft)
09.03.2016 19:20 -1,1 C -1,9 C 79 % 1005,2 hPa 0,0 mm 0,0 km/h (0 Bft) S 180 0 min -4,3 C 3,0 km/h (1 Bft)
09.03.2016 19:25 -1,2 C -1,9 C 80 % 1005,2 hPa 0,0 mm 0,6 km/h (0 Bft) SO 135 0 min -4,2 C 3,9 km/h (1 Bft)
09.03.2016 19:30 -1,3 C -1,9 C 81 % 1005,2 hPa 0,0 mm 0,9 km/h (0 Bft) S-SO 157 0 min -4,1 C 0,0 km/h (0 Bft)
09.03.2016 19:35 -1,4 C -2,1 C 82 % 1005,2 hPa 0,0 mm 1,2 km/h (1 Bft) SO 135 0 min -4,1 C 4,5 km/h (1 Bft)
09.03.2016 19:40 -1,5 C -2,1 C 83 % 1005,2 hPa 0,0 mm 0,6 km/h (0 Bft) O-SO 112 0 min -4,0 C 0,0 km/h (0 Bft)
09.03.2016 19:45 -1,4 C -2,1 C 83 % 1005,2 hPa 0,0 mm 0,9 km/h (0 Bft) O 90 0 min -3,9 C 0,0 km/h (0 Bft)
09.03.2016 19:50 -1,4 C -2,1 C 84 % 1005,3 hPa 0,0 mm 0,9 km/h (0 Bft) S-SO 157 0 min -3,7 C 3,9 km/h (1 Bft)
09.03.2016 19:55 -1,5 C -2,1 C 84 % 1005,3 hPa 0,0 mm 1,5 km/h (1 Bft) S-SO 157 0 min -3,8 C 0,0 km/h (0 Bft)
09.03.2016 20:00 -1,6 C -2,3 C 84 % 1005,3 hPa 0,0 mm 1,5 km/h (1 Bft) SO 135 0 min -3,9 C 6,3 km/h (2 Bft)
09.03.2016 20:05 -1,6 C -2,2 C 85 % 1005,3 hPa 0,0 mm 2,4 km/h (1 Bft) S-SO 157 0 min -3,8 C 3,6 km/h (1 Bft)
09.03.2016 20:10 -1,7 C -2,2 C 85 % 1005,4 hPa 0,0 mm 3,3 km/h (1 Bft) SO 135 0 min -3,9 C 4,2 km/h (1 Bft)
09.03.2016 20:15 -1,9 C -2,4 C 85 % 1005,4 hPa 0,0 mm 1,5 km/h (1 Bft) SW 225 0 min -4,1 C 0,0 km/h (0 Bft)
09.03.2016 20:20 -1,8 C -2,3 C 85 % 1005,4 hPa 0,0 mm 2,4 km/h (1 Bft) S 180 0 min -4,0 C 6,3 km/h (2 Bft)
09.03.2016 20:25 -2,0 C -2,4 C 85 % 1005,4 hPa 0,0 mm 2,7 km/h (1 Bft) S-SO 157 0 min -4,2 C 0,0 km/h (0 Bft)
09.03.2016 20:30 -2,2 C -2,6 C 85 % 1005,8 hPa 0,0 mm 1,5 km/h (1 Bft) S 180 0 min -4,4 C 0,0 km/h (0 Bft)
09.03.2016 20:35 -2,2 C -2,7 C 85 % 1005,8 hPa 0,0 mm 0,3 km/h (0 Bft) S-SO 157 0 min -4,4 C 0,0 km/h (0 Bft)
09.03.2016 20:40 -2,2 C -2,7 C 85 % 1005,8 hPa 0,0 mm 0,0 km/h (0 Bft) S-SO 157 0 min -4,4 C 0,0 km/h (0 Bft)
09.03.2016 20:45 -2,2 C -2,8 C 85 % 1005,8 hPa 0,0 mm 0,0 km/h (0 Bft) O-NO 67 0 min -4,4 C 0,0 km/h (0 Bft)
09.03.2016 20:50 -2,3 C -2,9 C 85 % 1005,4 hPa 0,0 mm 0,0 km/h (0 Bft) O-NO 67 0 min -4,5 C 0,0 km/h (0 Bft)
09.03.2016 20:55 -3,2 C -3,6 C 84 % 1005,4 hPa 0,0 mm 0,0 km/h (0 Bft) O 90 0 min -5,5 C 0,0 km/h (0 Bft)
09.03.2016 21:00 -3,3 C -3,7 C 84 % 1005,4 hPa 0,0 mm 0,0 km/h (0 Bft) NW 315 0 min -5,6 C 0,0 km/h (0 Bft)
09.03.2016 21:05 -3,5 C -4,0 C 83 % 1005,4 hPa 0,0 mm 0,0 km/h (0 Bft) NO 45 0 min -6,0 C 0,0 km/h (0 Bft)
09.03.2016 21:10 -3,3 C -3,8 C 83 % 1005,5 hPa 0,0 mm 0,0 km/h (0 Bft) O 90 0 min -5,8 C 0,0 km/h (0 Bft)
09.03.2016 21:15 -3,4 C -3,9 C 84 % 1005,5 hPa 0,0 mm 0,0 km/h (0 Bft) W-NW 292 0 min -5,7 C 0,0 km/h (0 Bft)
09.03.2016 21:20 -3,7 C -4,1 C 83 % 1005,5 hPa 0,0 mm 0,3 km/h (0 Bft) NW 315 0 min -6,2 C 0,0 km/h (0 Bft)
09.03.2016 21:25 -3,8 C -4,3 C 83 % 1005,5 hPa 0,0 mm 0,3 km/h (0 Bft) NW 315 0 min -6,3 C 0,0 km/h (0 Bft)
09.03.2016 21:30 -3,8 C -4,3 C 83 % 1005,8 hPa 0,0 mm 0,0 km/h (0 Bft) O-NO 67 0 min -6,3 C 0,0 km/h (0 Bft)
09.03.2016 21:35 -4,1 C -4,5 C 83 % 1005,8 hPa 0,0 mm 0,0 km/h (0 Bft) O-NO 67 0 min -6,5 C 0,0 km/h (0 Bft)
09.03.2016 21:40 -4,1 C -4,6 C 83 % 1005,8 hPa 0,0 mm 0,0 km/h (0 Bft) N-NW 337 0 min -6,5 C 0,0 km/h (0 Bft)
09.03.2016 21:45 -3,7 C -4,3 C 84 % 1005,8 hPa 0,0 mm 0,0 km/h (0 Bft) O-SO 112 0 min -6,0 C 0,0 km/h (0 Bft)
09.03.2016 21:50 -3,8 C -4,4 C 84 % 1005,6 hPa 0,0 mm 0,0 km/h (0 Bft) NW 315 0 min -6,1 C 0,0 km/h (0 Bft)
09.03.2016 21:55 -4,3 C -4,7 C 84 % 1005,6 hPa 0,0 mm 0,0 km/h (0 Bft) N-NW 337 0 min -6,6 C 0,0 km/h (0 Bft)
09.03.2016 22:00 -4,4 C -4,9 C 84 % 1005,6 hPa 0,0 mm 0,0 km/h (0 Bft) N 360 0 min -6,7 C 0,0 km/h (0 Bft)
09.03.2016 22:05 -4,4 C -4,9 C 84 % 1005,6 hPa 0,0 mm 0,0 km/h (0 Bft) S-SW 202 0 min -6,7 C 0,0 km/h (0 Bft)
09.03.2016 22:10 -4,5 C -5,0 C 84 % 1005,7 hPa 0,0 mm 0,0 km/h (0 Bft) NW 315 0 min -6,8 C 0,0 km/h (0 Bft)
09.03.2016 22:14 -4,7 C -5,1 C 84 % 1005,7 hPa 0,0 mm 0,0 km/h (0 Bft) W-NW 292 0 min -7,0 C 0,0 km/h (0 Bft)
09.03.2016 22:20 -4,6 C -5,0 C 84 % 1005,7 hPa 0,0 mm 0,0 km/h (0 Bft) W-SW 247 0 min -6,9 C 0,0 km/h (0 Bft)
09.03.2016 22:25 -4,0 C -4,6 C 84 % 1005,7 hPa 0,0 mm 0,0 km/h (0 Bft) NW 315 0 min -6,3 C 0,0 km/h (0 Bft)
09.03.2016 22:30 -4,5 C -5,0 C 84 % 1005,8 hPa 0,0 mm 0,0 km/h (0 Bft) O-NO 67 0 min -6,8 C 0,0 km/h (0 Bft)
09.03.2016 22:35 -4,5 C -5,0 C 84 % 1005,8 hPa 0,0 mm 0,0 km/h (0 Bft) N-NW 337 0 min -6,8 C 0,0 km/h (0 Bft)
09.03.2016 22:40 -4,7 C -5,1 C 84 % 1005,8 hPa 0,0 mm 0,0 km/h (0 Bft) NO 45 0 min -7,0 C 0,0 km/h (0 Bft)
09.03.2016 22:45 -4,5 C -5,0 C 85 % 1005,8 hPa 0,0 mm 0,0 km/h (0 Bft) O-NO 67 0 min -6,6 C 0,0 km/h (0 Bft)
09.03.2016 22:50 -4,7 C -5,2 C 85 % 1005,9 hPa 0,0 mm 0,0 km/h (0 Bft) W 270 0 min -6,8 C 0,0 km/h (0 Bft)
09.03.2016 22:55 -4,2 C -4,9 C 80 % 1005,9 hPa 0,0 mm 0,0 km/h (0 Bft) S 180 0 min -7,1 C 0,0 km/h (0 Bft)
09.03.2016 23:00 -4,2 C -4,5 C 80 % 1005,9 hPa 0,0 mm 0,0 km/h (0 Bft) W-NW 292 0 min -7,1 C 0,0 km/h (0 Bft)
09.03.2016 23:05 -4,2 C -4,3 C 80 % 1005,9 hPa 0,0 mm 0,0 km/h (0 Bft) W 270 0 min -7,1 C 0,0 km/h (0 Bft)
09.03.2016 23:10 -4,2 C -4,6 C 80 % 1005,9 hPa 0,0 mm 0,0 km/h (0 Bft) W-NW 292 0 min -7,1 C 0,0 km/h (0 Bft)
09.03.2016 23:15 -4,6 C -5,0 C 87 % 1005,9 hPa 0,0 mm 0,0 km/h (0 Bft) S 180 0 min -6,4 C 0,0 km/h (0 Bft)
09.03.2016 23:20 -4,2 C -4,6 C 80 % 1005,9 hPa 0,0 mm 0,6 km/h (0 Bft) W-SW 247 0 min -7,1 C 4,2 km/h (1 Bft)
09.03.2016 23:25 -4,2 C -4,1 C 80 % 1005,9 hPa 0,0 mm 0,9 km/h (0 Bft) O-SO 112 0 min -7,1 C 0,0 km/h (0 Bft)
09.03.2016 23:30 -4,2 C -4,4 C 80 % 1006,2 hPa 0,0 mm 0,6 km/h (0 Bft) W-SW 247 0 min -7,1 C 0,0 km/h (0 Bft)
09.03.2016 23:35 -4,4 C -4,8 C 87 % 1006,2 hPa 0,0 mm 0,0 km/h (0 Bft) O-NO 67 0 min -6,2 C 0,0 km/h (0 Bft)
09.03.2016 23:40 -4,3 C -4,8 C 87 % 1006,2 hPa 0,0 mm 0,0 km/h (0 Bft) W-NW 292 0 min -6,1 C 0,0 km/h (0 Bft)
09.03.2016 23:45 -4,2 C -4,6 C 80 % 1006,2 hPa 0,0 mm 0,0 km/h (0 Bft) S-SO 157 0 min -7,1 C 0,0 km/h (0 Bft)
09.03.2016 23:50 -4,2 C -4,7 C 88 % 1006,1 hPa 0,0 mm 0,0 km/h (0 Bft) W-NW 292 0 min -5,9 C 0,0 km/h (0 Bft)
09.03.2016 23:55 -4,2 C -4,6 C 80 % 1006,1 hPa 0,0 mm 0,0 km/h (0 Bft) N-NO 22 0 min -7,1 C 0,0 km/h (0 Bft)
_ Min-Zeit 04:05 04:05 15:00 17:05 - 23:55 - - - 23:55 23:55
Minimum _ -5,0 C -5,6 C 62 % 1004,4 hPa - 0,0 km/h (0 Bft) - - - -7,1 C 0,0 km/h (0 Bft)
_ Max-Zeit 14:59 14:40 06:45 00:05 23:55 15:05 - - 16:35 14:40 13:00
Maximum _ 5,6 C 9,7 C 89 % 1015,1 hPa 0,0 mm 14,9 km/h
NO (3 Bft)
- - 5 min -1,1 C 26,8 km/h
O-NO (4 Bft)
Durchschnitt _ -1,0 C 0,1 C 78 % 1008,6 hPa #0,0 mm 3,3 km/h (1 Bft) O-NO - #1:48 h -4,4 C 4,3 km/h (1 Bft)